Time,TemperatureF,DewpointF,PressureIn,WindDirection,WindDirectionDegrees,WindSpeedMPH,WindSpeedGustMPH,Humidity,HourlyPrecipIn,Conditions,Clouds,dailyrainin,SoftwareType,DateUTC
2014-10-01 00:02:00,60.3,39.4,29.85,ESE,116,0.0,1.0,46,0.00,,,0.00,meteobridge,2014-10-01 07:02:00,
2014-10-01 00:04:00,60.4,39.0,29.86,SE,138,0.0,1.0,45,0.00,,,0.00,meteobridge,2014-10-01 07:04:00,
2014-10-01 00:08:00,60.4,37.8,29.85,SW,231,4.9,5.0,43,0.00,,,0.00,meteobridge,2014-10-01 07:08:00,
2014-10-01 00:09:00,60.6,37.4,29.85,ESE,111,0.0,5.0,42,0.00,,,0.00,meteobridge,2014-10-01 07:09:00,
2014-10-01 00:13:00,61.0,38.8,29.85,SSW,207,2.0,2.0,44,0.00,,,0.00,meteobridge,2014-10-01 07:13:00,
2014-10-01 00:14:00,61.0,37.0,29.85,SSW,207,0.0,2.0,41,0.00,,,0.00,meteobridge,2014-10-01 07:14:00,
2014-10-01 00:19:00,61.2,36.7,29.85,East,94,0.9,7.0,40,0.00,,,0.00,meteobridge,2014-10-01 07:19:00,
2014-10-01 00:20:00,61.2,37.9,29.85,SW,236,0.9,7.0,42,0.00,,,0.00,meteobridge,2014-10-01 07:20:00,
2014-10-01 00:24:00,61.3,36.9,29.85,ESE,120,0.9,1.0,40,0.00,,,0.00,meteobridge,2014-10-01 07:24:00,
2014-10-01 00:25:00,61.3,36.1,29.85,ESE,118,0.0,1.0,39,0.00,,,0.00,meteobridge,2014-10-01 07:25:00,
2014-10-01 00:29:00,61.3,36.9,29.85,ENE,73,0.0,5.0,40,0.00,,,0.00,meteobridge,2014-10-01 07:29:00,
2014-10-01 00:30:00,61.3,36.9,29.85,ENE,74,0.0,5.0,40,0.00,,,0.00,meteobridge,2014-10-01 07:30:00,
2014-10-01 00:31:00,61.3,37.4,29.85,ENE,73,0.0,1.0,41,0.00,,,0.00,meteobridge,2014-10-01 07:31:00,
2014-10-01 00:34:00,61.3,36.9,29.85,SE,124,0.0,1.0,40,0.00,,,0.00,meteobridge,2014-10-01 07:34:00,
2014-10-01 00:35:00,61.3,36.9,29.85,SE,124,0.0,1.0,40,0.00,,,0.00,meteobridge,2014-10-01 07:35:00,
2014-10-01 00:36:00,61.2,36.7,29.85,ESE,120,0.0,1.0,40,0.00,,,0.00,meteobridge,2014-10-01 07:36:00,
2014-10-01 00:39:00,61.2,36.7,29.85,ESE,120,0.0,1.0,40,0.00,,,0.00,meteobridge,2014-10-01 07:39:00,
2014-10-01 00:40:00,61.0,35.8,29.85,ESE,120,0.0,1.0,39,0.00,,,0.00,meteobridge,2014-10-01 07:40:00,
2014-10-01 00:41:00,61.0,35.8,29.85,ESE,120,0.0,1.0,39,0.00,,,0.00,meteobridge,2014-10-01 07:41:00,
2014-10-01 00:45:00,61.0,36.5,29.85,ESE,115,0.0,1.0,40,0.00,,,0.00,meteobridge,2014-10-01 07:45:00,
2014-10-01 00:46:00,61.0,36.5,29.85,ESE,115,0.0,1.0,40,0.00,,,0.00,meteobridge,2014-10-01 07:46:00,
2014-10-01 00:47:00,60.8,36.3,29.85,ESE,115,0.0,0.0,40,0.00,,,0.00,meteobridge,2014-10-01 07:47:00,
2014-10-01 00:50:00,60.8,35.6,29.85,ESE,115,0.0,1.0,39,0.00,,,0.00,meteobridge,2014-10-01 07:50:00,
2014-10-01 00:51:00,60.8,35.1,29.85,SW,231,0.9,4.0,38,0.00,,,0.00,meteobridge,2014-10-01 07:51:00,
2014-10-01 00:52:00,60.8,35.6,29.85,SW,222,0.0,4.0,39,0.00,,,0.00,meteobridge,2014-10-01 07:52:00,
2014-10-01 00:55:00,61.0,35.8,29.85,SE,131,0.0,1.0,39,0.00,,,0.00,meteobridge,2014-10-01 07:55:00,
2014-10-01 00:57:00,61.0,35.2,29.85,ESE,102,0.0,1.0,38,0.00,,,0.00,meteobridge,2014-10-01 07:57:00,
2014-10-01 01:00:00,61.2,35.4,29.85,East,82,0.0,2.0,38,0.00,,,0.00,meteobridge,2014-10-01 08:00:00,
2014-10-01 01:02:00,61.2,35.4,29.85,SW,231,0.0,1.0,38,0.00,,,0.00,meteobridge,2014-10-01 08:02:00,
2014-10-01 01:03:00,61.2,36.0,29.85,SW,231,0.0,1.0,39,0.00,,,0.00,meteobridge,2014-10-01 08:03:00,
2014-10-01 01:05:00,61.2,37.2,29.85,SW,229,0.0,2.0,41,0.00,,,0.00,meteobridge,2014-10-01 08:05:00,
2014-10-01 01:08:00,61.2,36.7,29.85,East,101,0.9,2.0,40,0.00,,,0.00,meteobridge,2014-10-01 08:08:00,
2014-10-01 01:10:00,61.0,37.0,29.85,SW,236,0.0,1.0,41,0.00,,,0.00,meteobridge,2014-10-01 08:10:00,
2014-10-01 01:13:00,61.0,37.8,29.85,SW,236,0.0,1.0,42,0.00,,,0.00,meteobridge,2014-10-01 08:13:00,
2014-10-01 01:14:00,60.8,36.9,29.85,SSW,212,2.0,2.0,41,0.00,,,0.00,meteobridge,2014-10-01 08:14:00,
2014-10-01 01:17:00,60.6,35.6,29.85,SW,228,0.9,2.0,39,0.00,,,0.00,meteobridge,2014-10-01 08:17:00,
2014-10-01 01:19:00,60.6,36.1,29.85,SSE,163,0.9,1.0,40,0.00,,,0.00,meteobridge,2014-10-01 08:19:00,
2014-10-01 01:20:00,60.6,36.9,29.85,SSE,163,0.0,1.0,41,0.00,,,0.00,meteobridge,2014-10-01 08:20:00,
2014-10-01 01:23:00,60.6,36.1,29.85,East,83,0.0,1.0,40,0.00,,,0.00,meteobridge,2014-10-01 08:23:00,
2014-10-01 01:24:00,60.6,35.6,29.85,South,174,0.0,1.0,39,0.00,,,0.00,meteobridge,2014-10-01 08:24:00,
2014-10-01 01:26:00,60.6,37.4,29.85,East,79,0.0,2.0,42,0.00,,,0.00,meteobridge,2014-10-01 08:26:00,
2014-10-01 01:29:00,60.6,36.1,29.85,WSW,251,0.9,1.0,40,0.00,,,0.00,meteobridge,2014-10-01 08:29:00,
2014-10-01 01:32:00,60.4,35.4,29.85,North,4,0.0,1.0,39,0.00,,,0.00,meteobridge,2014-10-01 08:32:00,
2014-10-01 01:34:00,60.4,35.4,29.85,ENE,65,0.0,2.0,39,0.00,,,0.00,meteobridge,2014-10-01 08:34:00,
2014-10-01 01:35:00,60.4,36.0,29.85,ENE,65,0.0,2.0,40,0.00,,,0.00,meteobridge,2014-10-01 08:35:00,
2014-10-01 01:38:00,60.4,36.0,29.85,NNE,24,0.0,1.0,40,0.00,,,0.00,meteobridge,2014-10-01 08:38:00,
2014-10-01 01:40:00,60.6,36.1,29.85,West,269,0.0,2.0,40,0.00,,,0.00,meteobridge,2014-10-01 08:40:00,
2014-10-01 01:44:00,60.4,37.8,29.86,SW,227,0.9,1.0,43,0.00,,,0.00,meteobridge,2014-10-01 08:44:00,
2014-10-01 01:45:00,60.4,36.7,29.86,SW,236,0.0,3.0,41,0.00,,,0.00,meteobridge,2014-10-01 08:45:00,
2014-10-01 01:46:00,60.4,36.7,29.86,SW,236,0.0,3.0,41,0.00,,,0.00,meteobridge,2014-10-01 08:46:00,
2014-10-01 01:49:00,60.3,38.3,29.86,SW,236,0.0,0.0,44,0.00,,,0.00,meteobridge,2014-10-01 08:49:00,
2014-10-01 01:50:00,60.3,38.3,29.86,SW,236,0.0,1.0,44,0.00,,,0.00,meteobridge,2014-10-01 08:50:00,
2014-10-01 01:51:00,60.3,38.3,29.86,WSW,237,0.0,1.0,44,0.00,,,0.00,meteobridge,2014-10-01 08:51:00,
2014-10-01 01:55:00,59.7,35.4,29.86,South,191,0.0,1.0,40,0.00,,,0.00,meteobridge,2014-10-01 08:55:00,
2014-10-01 01:56:00,59.7,36.5,29.86,South,190,0.0,1.0,42,0.00,,,0.00,meteobridge,2014-10-01 08:56:00,
2014-10-01 01:57:00,59.7,37.8,29.86,South,184,0.0,1.0,44,0.00,,,0.00,meteobridge,2014-10-01 08:57:00,
2014-10-01 02:01:00,59.5,35.8,29.86,South,187,0.0,0.0,41,0.00,,,0.00,meteobridge,2014-10-01 09:01:00,
2014-10-01 02:02:00,59.5,36.5,29.86,South,187,0.0,1.0,42,0.00,,,0.00,meteobridge,2014-10-01 09:02:00,
2014-10-01 02:03:00,59.5,35.8,29.86,West,272,0.0,2.0,41,0.00,,,0.00,meteobridge,2014-10-01 09:03:00,
2014-10-01 02:06:00,59.5,35.8,29.86,ENE,78,0.0,2.0,41,0.00,,,0.00,meteobridge,2014-10-01 09:06:00,
2014-10-01 02:08:00,59.7,36.0,29.86,East,101,0.0,1.0,41,0.00,,,0.00,meteobridge,2014-10-01 09:08:00,
2014-10-01 02:09:00,59.7,36.0,29.86,South,179,0.0,1.0,41,0.00,,,0.00,meteobridge,2014-10-01 09:09:00,
2014-10-01 02:11:00,59.9,35.6,29.86,West,267,0.0,3.0,40,0.00,,,0.00,meteobridge,2014-10-01 09:11:00,
2014-10-01 02:13:00,60.1,35.6,29.86,SW,225,0.0,1.0,40,0.00,,,0.00,meteobridge,2014-10-01 09:13:00,
2014-10-01 02:14:00,60.1,36.3,29.86,NE,55,0.0,1.0,41,0.00,,,0.00,meteobridge,2014-10-01 09:14:00,
2014-10-01 02:16:00,60.1,35.6,29.86,ENE,68,0.0,2.0,40,0.00,,,0.00,meteobridge,2014-10-01 09:16:00,
2014-10-01 02:18:00,60.1,35.1,29.86,ENE,72,0.9,2.0,39,0.00,,,0.00,meteobridge,2014-10-01 09:18:00,
2014-10-01 02:19:00,60.1,35.6,29.86,ENE,74,0.0,2.0,40,0.00,,,0.00,meteobridge,2014-10-01 09:19:00,
2014-10-01 02:22:00,60.3,35.8,29.87,SSE,150,0.0,1.0,40,0.00,,,0.00,meteobridge,2014-10-01 09:22:00,
2014-10-01 02:23:00,60.1,35.6,29.86,SSE,150,0.0,1.0,40,0.00,,,0.00,meteobridge,2014-10-01 09:23:00,
2014-10-01 02:24:00,60.1,35.1,29.86,SW,223,0.0,1.0,39,0.00,,,0.00,meteobridge,2014-10-01 09:24:00,
2014-10-01 02:27:00,60.1,35.1,29.86,West,263,0.0,1.0,39,0.00,,,0.00,meteobridge,2014-10-01 09:27:00,
2014-10-01 02:28:00,60.1,35.1,29.86,SE,143,0.0,1.0,39,0.00,,,0.00,meteobridge,2014-10-01 09:28:00,
2014-10-01 02:29:00,60.1,35.1,29.86,SSE,155,0.0,1.0,39,0.00,,,0.00,meteobridge,2014-10-01 09:29:00,
2014-10-01 02:33:00,60.1,35.1,29.86,ENE,63,0.0,2.0,39,0.00,,,0.00,meteobridge,2014-10-01 09:33:00,
2014-10-01 02:34:00,60.1,35.1,29.86,WSW,239,0.0,2.0,39,0.00,,,0.00,meteobridge,2014-10-01 09:34:00,
2014-10-01 02:38:00,60.3,35.2,29.86,South,172,0.0,1.0,39,0.00,,,0.00,meteobridge,2014-10-01 09:38:00,
2014-10-01 02:39:00,60.3,35.2,29.86,South,179,0.0,5.0,39,0.00,,,0.00,meteobridge,2014-10-01 09:39:00,
2014-10-01 02:40:00,60.3,35.2,29.86,SE,134,0.0,5.0,39,0.00,,,0.00,meteobridge,2014-10-01 09:40:00,
2014-10-01 02:43:00,60.3,35.2,29.86,West,265,0.0,1.0,39,0.00,,,0.00,meteobridge,2014-10-01 09:43:00,
2014-10-01 02:45:00,60.3,35.2,29.86,West,271,0.0,2.0,39,0.00,,,0.00,meteobridge,2014-10-01 09:45:00,
2014-10-01 02:49:00,60.1,36.9,29.86,SW,234,0.0,1.0,42,0.00,,,0.00,meteobridge,2014-10-01 09:49:00,
2014-10-01 02:51:00,59.9,35.6,29.86,SW,235,0.0,1.0,40,0.00,,,0.00,meteobridge,2014-10-01 09:51:00,
2014-10-01 02:52:00,59.9,36.7,29.86,SW,235,0.0,1.0,42,0.00,,,0.00,meteobridge,2014-10-01 09:52:00,
2014-10-01 02:54:00,59.7,35.4,29.86,South,190,0.9,1.0,40,0.00,,,0.00,meteobridge,2014-10-01 09:54:00,
2014-10-01 02:56:00,59.7,35.4,29.86,SW,216,0.0,2.0,40,0.00,,,0.00,meteobridge,2014-10-01 09:56:00,
2014-10-01 02:57:00,59.5,35.8,29.86,SW,217,0.0,1.0,41,0.00,,,0.00,meteobridge,2014-10-01 09:57:00,
2014-10-01 03:00:00,59.5,35.8,29.86,WSW,240,0.9,2.0,41,0.00,,,0.00,meteobridge,2014-10-01 10:00:00,
2014-10-01 03:01:00,59.5,35.8,29.86,ESE,103,0.0,2.0,41,0.00,,,0.00,meteobridge,2014-10-01 10:01:00,
2014-10-01 03:02:00,59.4,37.4,29.86,South,184,0.9,1.0,44,0.00,,,0.00,meteobridge,2014-10-01 10:02:00,
2014-10-01 03:05:00,59.4,35.6,29.86,South,184,0.0,0.0,41,0.00,,,0.00,meteobridge,2014-10-01 10:05:00,
2014-10-01 03:07:00,59.2,35.4,29.86,WSW,242,2.0,2.0,41,0.00,,,0.00,meteobridge,2014-10-01 10:07:00,
2014-10-01 03:08:00,59.2,34.9,29.86,SE,129,0.0,2.0,40,0.00,,,0.00,meteobridge,2014-10-01 10:08:00,
2014-10-01 03:11:00,59.2,36.1,29.86,SE,129,0.0,1.0,42,0.00,,,0.00,meteobridge,2014-10-01 10:11:00,
2014-10-01 03:12:00,59.0,35.4,29.86,SE,129,0.0,1.0,41,0.00,,,0.00,meteobridge,2014-10-01 10:12:00,
2014-10-01 03:13:00,59.0,34.7,29.86,SE,129,0.0,1.0,40,0.00,,,0.00,meteobridge,2014-10-01 10:13:00,
2014-10-01 03:16:00,58.8,35.2,29.86,ESE,102,0.0,1.0,41,0.00,,,0.00,meteobridge,2014-10-01 10:16:00,
2014-10-01 03:17:00,58.8,35.2,29.86,SW,231,0.0,1.0,41,0.00,,,0.00,meteobridge,2014-10-01 10:17:00,
2014-10-01 03:18:00,58.8,35.8,29.86,SE,141,0.0,1.0,42,0.00,,,0.00,meteobridge,2014-10-01 10:18:00,
2014-10-01 03:21:00,58.8,35.2,29.86,SE,141,0.0,1.0,41,0.00,,,0.00,meteobridge,2014-10-01 10:21:00,
2014-10-01 03:22:00,58.8,35.2,29.86,SE,141,0.9,1.0,41,0.00,,,0.00,meteobridge,2014-10-01 10:22:00,
2014-10-01 03:24:00,58.6,36.1,29.86,SE,141,0.0,1.0,43,0.00,,,0.00,meteobridge,2014-10-01 10:24:00,
2014-10-01 03:27:00,58.6,35.6,29.86,SE,141,0.0,1.0,42,0.00,,,0.00,meteobridge,2014-10-01 10:27:00,
2014-10-01 03:28:00,58.5,36.0,29.86,SE,141,0.0,1.0,43,0.00,,,0.00,meteobridge,2014-10-01 10:28:00,
2014-10-01 03:29:00,58.5,36.0,29.86,SE,141,0.0,1.0,43,0.00,,,0.00,meteobridge,2014-10-01 10:29:00,
2014-10-01 03:32:00,58.3,34.7,29.86,SW,230,0.0,1.0,41,0.00,,,0.00,meteobridge,2014-10-01 10:32:00,
2014-10-01 03:33:00,58.3,35.2,29.86,SW,230,0.0,1.0,42,0.00,,,0.00,meteobridge,2014-10-01 10:33:00,
2014-10-01 03:34:00,58.3,35.2,29.86,SW,230,0.0,0.0,42,0.00,,,0.00,meteobridge,2014-10-01 10:34:00,
2014-10-01 03:37:00,58.3,37.0,29.86,SW,230,0.0,1.0,45,0.00,,,0.00,meteobridge,2014-10-01 10:37:00,
2014-10-01 03:38:00,58.1,36.9,29.86,SW,230,0.0,1.0,45,0.00,,,0.00,meteobridge,2014-10-01 10:38:00,
2014-10-01 03:39:00,57.9,36.7,29.86,SW,230,0.0,1.0,45,0.00,,,0.00,meteobridge,2014-10-01 10:39:00,
2014-10-01 03:42:00,57.9,36.1,29.86,SW,230,0.0,1.0,44,0.00,,,0.00,meteobridge,2014-10-01 10:42:00,
2014-10-01 03:44:00,57.7,35.4,29.86,SW,236,0.0,2.0,43,0.00,,,0.00,meteobridge,2014-10-01 10:44:00,
2014-10-01 03:47:00,57.7,35.4,29.86,SSW,206,0.0,1.0,43,0.00,,,0.00,meteobridge,2014-10-01 10:47:00,
2014-10-01 03:49:00,57.9,34.9,29.86,South,177,0.0,2.0,42,0.00,,,0.00,meteobridge,2014-10-01 10:49:00,
2014-10-01 03:50:00,57.9,34.9,29.86,South,177,0.0,2.0,42,0.00,,,0.00,meteobridge,2014-10-01 10:50:00,
2014-10-01 03:52:00,57.9,35.6,29.86,East,101,0.0,1.0,43,0.00,,,0.00,meteobridge,2014-10-01 10:52:00,
2014-10-01 03:55:00,57.9,36.1,29.86,ESE,104,0.0,1.0,44,0.00,,,0.00,meteobridge,2014-10-01 10:55:00,
2014-10-01 03:58:00,57.9,34.3,29.86,West,263,0.0,0.0,41,0.00,,,0.00,meteobridge,2014-10-01 10:58:00,
2014-10-01 04:00:00,57.9,35.6,29.86,West,262,0.0,1.0,43,0.00,,,0.00,meteobridge,2014-10-01 11:00:00,
2014-10-01 04:01:00,57.9,35.6,29.86,West,262,0.0,0.0,43,0.00,,,0.00,meteobridge,2014-10-01 11:01:00,
2014-10-01 04:03:00,57.9,35.6,29.86,ESE,118,0.0,1.0,43,0.00,,,0.00,meteobridge,2014-10-01 11:03:00,
2014-10-01 04:05:00,57.9,34.3,29.86,ESE,117,0.0,1.0,41,0.00,,,0.00,meteobridge,2014-10-01 11:05:00,
2014-10-01 04:06:00,57.9,34.9,29.86,ESE,118,0.0,1.0,42,0.00,,,0.00,meteobridge,2014-10-01 11:06:00,
2014-10-01 04:08:00,57.9,34.9,29.86,East,87,0.0,1.0,42,0.00,,,0.00,meteobridge,2014-10-01 11:08:00,
2014-10-01 04:11:00,57.9,35.6,29.86,SW,226,0.0,1.0,43,0.00,,,0.00,meteobridge,2014-10-01 11:11:00,
2014-10-01 04:12:00,57.9,35.6,29.86,SW,226,0.0,1.0,43,0.00,,,0.00,meteobridge,2014-10-01 11:12:00,
2014-10-01 04:14:00,57.9,35.6,29.86,South,185,0.0,3.0,43,0.00,,,0.00,meteobridge,2014-10-01 11:14:00,
2014-10-01 04:16:00,57.9,35.6,29.86,ENE,72,0.0,2.0,43,0.00,,,0.00,meteobridge,2014-10-01 11:16:00,
2014-10-01 04:17:00,57.9,34.9,29.86,ENE,75,0.0,1.0,42,0.00,,,0.00,meteobridge,2014-10-01 11:17:00,
2014-10-01 04:19:00,57.9,34.3,29.86,ENE,78,0.0,1.0,41,0.00,,,0.00,meteobridge,2014-10-01 11:19:00,
2014-10-01 04:21:00,57.9,35.6,29.86,East,86,0.0,1.0,43,0.00,,,0.00,meteobridge,2014-10-01 11:21:00,
2014-10-01 04:22:00,57.9,35.6,29.86,East,86,0.0,1.0,43,0.00,,,0.00,meteobridge,2014-10-01 11:22:00,
2014-10-01 04:24:00,57.9,35.6,29.86,East,86,0.0,0.0,43,0.00,,,0.00,meteobridge,2014-10-01 11:24:00,
2014-10-01 04:26:00,57.9,34.9,29.86,SW,224,0.9,4.0,42,0.00,,,0.00,meteobridge,2014-10-01 11:26:00,
2014-10-01 04:28:00,57.9,36.1,29.86,SW,235,0.9,2.0,44,0.00,,,0.00,meteobridge,2014-10-01 11:28:00,
2014-10-01 04:29:00,57.9,36.1,29.86,WSW,240,0.0,1.0,44,0.00,,,0.00,meteobridge,2014-10-01 11:29:00,
2014-10-01 04:31:00,57.7,36.0,29.86,SSW,206,0.0,1.0,44,0.00,,,0.00,meteobridge,2014-10-01 11:31:00,
2014-10-01 04:33:00,57.7,34.9,29.86,SSW,206,0.0,0.0,42,0.00,,,0.00,meteobridge,2014-10-01 11:33:00,
2014-10-01 04:35:00,57.7,34.9,29.86,SSW,206,0.0,1.0,42,0.00,,,0.00,meteobridge,2014-10-01 11:35:00,
2014-10-01 04:37:00,57.7,34.9,29.86,SSW,206,0.0,0.0,42,0.00,,,0.00,meteobridge,2014-10-01 11:37:00,
2014-10-01 04:38:00,57.7,34.2,29.86,SSW,206,0.0,0.0,41,0.00,,,0.00,meteobridge,2014-10-01 11:38:00,
2014-10-01 04:40:00,57.7,36.5,29.86,SSW,206,0.0,0.0,45,0.00,,,0.00,meteobridge,2014-10-01 11:40:00,
2014-10-01 04:42:00,57.6,34.7,29.86,SSW,207,0.0,0.0,42,0.00,,,0.00,meteobridge,2014-10-01 11:42:00,
2014-10-01 04:44:00,57.6,34.7,29.86,East,94,0.0,2.0,42,0.00,,,0.00,meteobridge,2014-10-01 11:44:00,
2014-10-01 04:45:00,57.6,34.7,29.86,East,97,0.0,2.0,42,0.00,,,0.00,meteobridge,2014-10-01 11:45:00,
2014-10-01 04:46:00,57.6,34.7,29.86,East,97,0.0,1.0,42,0.00,,,0.00,meteobridge,2014-10-01 11:46:00,
2014-10-01 04:47:00,57.6,34.7,29.86,East,99,0.0,1.0,42,0.00,,,0.00,meteobridge,2014-10-01 11:47:00,
2014-10-01 04:49:00,57.6,34.7,29.86,SSE,161,0.0,1.0,42,0.00,,,0.00,meteobridge,2014-10-01 11:49:00,
2014-10-01 04:51:00,57.6,34.7,29.86,SE,141,0.0,1.0,42,0.00,,,0.00,meteobridge,2014-10-01 11:51:00,
2014-10-01 04:52:00,57.6,34.7,29.86,SE,141,0.9,1.0,42,0.00,,,0.00,meteobridge,2014-10-01 11:52:00,
2014-10-01 04:54:00,57.4,34.5,29.86,SW,236,0.0,1.0,42,0.00,,,0.00,meteobridge,2014-10-01 11:54:00,
2014-10-01 04:56:00,57.4,34.5,29.86,SW,229,0.9,2.0,42,0.00,,,0.00,meteobridge,2014-10-01 11:56:00,
2014-10-01 04:57:00,57.4,34.5,29.86,ESE,116,0.9,2.0,42,0.00,,,0.00,meteobridge,2014-10-01 11:57:00,
2014-10-01 04:59:00,57.6,34.0,29.86,East,79,0.0,2.0,41,0.00,,,0.00,meteobridge,2014-10-01 11:59:00,
2014-10-01 05:01:00,57.6,34.0,29.86,SSW,198,0.0,3.0,41,0.00,,,0.00,meteobridge,2014-10-01 12:01:00,
2014-10-01 05:03:00,57.6,34.0,29.86,SSW,198,0.0,0.0,41,0.00,,,0.00,meteobridge,2014-10-01 12:03:00,
2014-10-01 05:04:00,57.6,34.7,29.86,SSW,197,0.0,0.0,42,0.00,,,0.00,meteobridge,2014-10-01 12:04:00,
2014-10-01 05:06:00,57.6,34.0,29.86,WSW,240,0.9,1.0,41,0.00,,,0.00,meteobridge,2014-10-01 12:06:00,
2014-10-01 05:08:00,57.6,34.0,29.86,SW,236,0.9,1.0,41,0.00,,,0.00,meteobridge,2014-10-01 12:08:00,
2014-10-01 05:09:00,57.6,35.8,29.86,SW,217,0.9,2.0,44,0.00,,,0.00,meteobridge,2014-10-01 12:09:00,
2014-10-01 05:11:00,57.6,34.7,29.86,SW,217,0.9,1.0,42,0.00,,,0.00,meteobridge,2014-10-01 12:11:00,
2014-10-01 05:13:00,57.6,34.7,29.86,SE,124,0.0,1.0,42,0.00,,,0.00,meteobridge,2014-10-01 12:13:00,
2014-10-01 05:16:00,57.6,35.2,29.86,SW,236,0.0,1.0,43,0.00,,,0.00,meteobridge,2014-10-01 12:16:00,
2014-10-01 05:19:00,57.6,34.7,29.86,SSE,165,0.0,0.0,42,0.00,,,0.00,meteobridge,2014-10-01 12:19:00,
2014-10-01 05:21:00,57.6,33.4,29.87,NNE,17,0.9,5.0,40,0.00,,,0.00,meteobridge,2014-10-01 12:21:00,
2014-10-01 05:25:00,57.9,34.9,29.87,WSW,258,0.0,1.0,42,0.00,,,0.00,meteobridge,2014-10-01 12:25:00,
2014-10-01 05:26:00,57.9,34.9,29.87,SE,124,0.9,1.0,42,0.00,,,0.00,meteobridge,2014-10-01 12:26:00,
2014-10-01 05:27:00,57.9,34.9,29.87,SE,124,0.0,1.0,42,0.00,,,0.00,meteobridge,2014-10-01 12:27:00,
2014-10-01 05:30:00,57.7,34.2,29.87,South,172,0.0,1.0,41,0.00,,,0.00,meteobridge,2014-10-01 12:30:00,
2014-10-01 05:32:00,57.9,34.3,29.87,ESE,117,0.0,2.0,41,0.00,,,0.00,meteobridge,2014-10-01 12:32:00,
2014-10-01 05:35:00,57.7,34.2,29.87,ESE,116,0.9,1.0,41,0.00,,,0.00,meteobridge,2014-10-01 12:35:00,
2014-10-01 05:37:00,57.7,34.2,29.87,ESE,102,0.9,1.0,41,0.00,,,0.00,meteobridge,2014-10-01 12:37:00,
2014-10-01 05:41:00,57.7,33.6,29.87,SW,217,0.9,3.0,40,0.00,,,0.00,meteobridge,2014-10-01 12:41:00,
2014-10-01 05:42:00,57.9,34.3,29.87,ENE,66,0.0,2.0,41,0.00,,,0.00,meteobridge,2014-10-01 12:42:00,
2014-10-01 05:43:00,57.9,34.3,29.87,ENE,66,0.9,2.0,41,0.00,,,0.00,meteobridge,2014-10-01 12:43:00,
2014-10-01 05:46:00,57.9,33.8,29.87,South,190,2.0,3.0,40,0.00,,,0.00,meteobridge,2014-10-01 12:46:00,
2014-10-01 05:48:00,57.9,34.3,29.87,SSW,200,0.0,2.0,41,0.00,,,0.00,meteobridge,2014-10-01 12:48:00,
2014-10-01 05:51:00,58.1,34.0,29.87,SSW,207,4.0,5.0,40,0.00,,,0.00,meteobridge,2014-10-01 12:51:00,
2014-10-01 05:53:00,58.3,34.7,29.87,SSW,210,0.0,5.0,41,0.00,,,0.00,meteobridge,2014-10-01 12:53:00,
2014-10-01 05:56:00,58.3,34.0,29.88,ESE,107,0.9,2.0,40,0.00,,,0.00,meteobridge,2014-10-01 12:56:00,
2014-10-01 05:58:00,58.3,34.7,29.88,South,177,0.0,1.0,41,0.00,,,0.00,meteobridge,2014-10-01 12:58:00,
2014-10-01 06:01:00,58.1,35.1,29.87,SW,224,0.0,2.0,42,0.00,,,0.00,meteobridge,2014-10-01 13:01:00,
2014-10-01 06:03:00,57.9,33.8,29.87,ENE,64,0.0,2.0,40,0.00,,,0.00,meteobridge,2014-10-01 13:03:00,
2014-10-01 06:04:00,57.9,33.8,29.87,SW,222,0.9,3.0,40,0.00,,,0.00,meteobridge,2014-10-01 13:04:00,
2014-10-01 06:07:00,57.9,34.3,29.87,SW,214,0.9,2.0,41,0.00,,,0.00,meteobridge,2014-10-01 13:07:00,
2014-10-01 06:09:00,57.7,34.9,29.88,SSW,207,2.0,2.0,42,0.00,,,0.00,meteobridge,2014-10-01 13:09:00,
2014-10-01 06:12:00,57.7,35.4,29.88,SE,146,0.0,2.0,43,0.00,,,0.00,meteobridge,2014-10-01 13:12:00,
2014-10-01 06:14:00,57.6,34.7,29.88,SSW,197,0.9,1.0,42,0.00,,,0.00,meteobridge,2014-10-01 13:14:00,
2014-10-01 06:17:00,57.6,34.7,29.88,SSW,202,0.0,3.0,42,0.00,,,0.00,meteobridge,2014-10-01 13:17:00,
2014-10-01 06:19:00,57.6,34.0,29.88,WSW,245,0.9,2.0,41,0.00,,,0.00,meteobridge,2014-10-01 13:19:00,
2014-10-01 06:20:00,57.6,34.0,29.88,SW,220,2.9,6.0,41,0.00,,,0.00,meteobridge,2014-10-01 13:20:00,
2014-10-01 06:22:00,57.7,34.2,29.88,SW,220,0.9,5.0,41,0.00,,,0.00,meteobridge,2014-10-01 13:22:00,
2014-10-01 06:24:00,57.7,34.2,29.88,SW,220,0.0,2.0,41,0.00,,,0.00,meteobridge,2014-10-01 13:24:00,
2014-10-01 06:25:00,57.7,34.2,29.88,SW,220,0.0,2.0,41,0.00,,,0.00,meteobridge,2014-10-01 13:25:00,
2014-10-01 06:27:00,57.7,33.6,29.88,SW,229,0.0,3.0,40,0.00,,,0.00,meteobridge,2014-10-01 13:27:00,
2014-10-01 06:30:00,57.9,33.8,29.88,South,177,0.0,2.0,40,0.00,,,0.00,meteobridge,2014-10-01 13:30:00,
2014-10-01 06:33:00,57.9,33.8,29.88,East,96,0.0,4.0,40,0.00,,,0.00,meteobridge,2014-10-01 13:33:00,
2014-10-01 06:35:00,57.9,33.8,29.88,South,170,0.0,3.0,40,0.00,,,0.00,meteobridge,2014-10-01 13:35:00,
2014-10-01 06:38:00,57.9,34.9,29.88,SW,231,0.0,2.0,42,0.00,,,0.00,meteobridge,2014-10-01 13:38:00,
2014-10-01 06:40:00,57.7,33.6,29.88,South,177,0.0,2.0,40,0.00,,,0.00,meteobridge,2014-10-01 13:40:00,
2014-10-01 06:41:00,57.7,33.6,29.88,South,177,0.0,2.0,40,0.00,,,0.00,meteobridge,2014-10-01 13:41:00,
2014-10-01 06:44:00,57.7,33.6,29.88,SE,138,0.0,1.0,40,0.00,,,0.00,meteobridge,2014-10-01 13:44:00,
2014-10-01 06:45:00,57.7,33.6,29.88,SSW,196,0.0,1.0,40,0.00,,,0.00,meteobridge,2014-10-01 13:45:00,
2014-10-01 06:46:00,57.7,34.9,29.88,WSW,245,2.9,3.0,42,0.00,,,0.00,meteobridge,2014-10-01 13:46:00,
2014-10-01 06:49:00,57.7,33.6,29.88,ESE,117,0.0,4.0,40,0.00,,,0.00,meteobridge,2014-10-01 13:49:00,
2014-10-01 06:51:00,57.7,33.6,29.88,West,272,0.0,2.0,40,0.00,,,0.00,meteobridge,2014-10-01 13:51:00,
2014-10-01 06:54:00,57.7,34.2,29.88,South,172,0.9,1.0,41,0.00,,,0.00,meteobridge,2014-10-01 13:54:00,
2014-10-01 06:56:00,57.6,33.4,29.88,SW,230,0.0,1.0,40,0.00,,,0.00,meteobridge,2014-10-01 13:56:00,
2014-10-01 06:57:00,57.6,33.4,29.88,ESE,117,0.9,2.0,40,0.00,,,0.00,meteobridge,2014-10-01 13:57:00,
2014-10-01 06:59:00,57.6,33.4,29.88,ENE,72,0.9,2.0,40,0.00,,,0.00,meteobridge,2014-10-01 13:59:00,
2014-10-01 07:01:00,57.6,33.4,29.88,East,82,0.0,1.0,40,0.00,,,0.00,meteobridge,2014-10-01 14:01:00,
2014-10-01 07:03:00,57.6,34.0,29.88,East,85,0.9,1.0,41,0.00,,,0.00,meteobridge,2014-10-01 14:03:00,
2014-10-01 07:04:00,57.6,33.4,29.88,SE,125,0.0,1.0,40,0.00,,,0.00,meteobridge,2014-10-01 14:04:00,
2014-10-01 07:06:00,57.6,34.0,29.88,ESE,110,0.0,1.0,41,0.00,,,0.00,meteobridge,2014-10-01 14:06:00,
2014-10-01 07:08:00,57.6,32.7,29.88,SE,141,0.0,1.0,39,0.00,,,0.00,meteobridge,2014-10-01 14:08:00,
2014-10-01 07:10:00,57.6,32.7,29.89,SW,221,2.0,2.0,39,0.00,,,0.00,meteobridge,2014-10-01 14:10:00,
2014-10-01 07:13:00,57.6,35.2,29.89,ESE,104,0.9,1.0,43,0.00,,,0.00,meteobridge,2014-10-01 14:13:00,
2014-10-01 07:15:00,57.4,33.3,29.89,South,174,0.0,1.0,40,0.00,,,0.00,meteobridge,2014-10-01 14:15:00,
2014-10-01 07:18:00,57.2,33.6,29.89,SSE,160,0.0,1.0,41,0.00,,,0.00,meteobridge,2014-10-01 14:18:00,
2014-10-01 07:19:00,57.2,33.6,29.89,SSE,160,0.0,0.0,41,0.00,,,0.00,meteobridge,2014-10-01 14:19:00,
2014-10-01 07:20:00,57.2,33.1,29.89,West,261,0.0,2.0,40,0.00,,,0.00,meteobridge,2014-10-01 14:20:00,
2014-10-01 07:23:00,57.0,32.9,29.89,ESE,102,0.0,2.0,40,0.00,,,0.00,meteobridge,2014-10-01 14:23:00,
2014-10-01 07:24:00,57.2,32.5,29.89,East,101,0.0,1.0,39,0.00,,,0.00,meteobridge,2014-10-01 14:24:00,
2014-10-01 07:26:00,57.2,32.5,29.89,SE,137,0.0,2.0,39,0.00,,,0.00,meteobridge,2014-10-01 14:26:00,
2014-10-01 07:28:00,57.2,33.1,29.89,ESE,119,0.9,2.0,40,0.00,,,0.00,meteobridge,2014-10-01 14:28:00,
2014-10-01 07:29:00,57.2,32.5,29.89,SE,143,0.0,2.0,39,0.00,,,0.00,meteobridge,2014-10-01 14:29:00,
2014-10-01 07:31:00,57.2,34.3,29.89,SSE,164,0.0,1.0,42,0.00,,,0.00,meteobridge,2014-10-01 14:31:00,
2014-10-01 07:33:00,57.0,33.6,29.89,SSE,166,0.0,1.0,41,0.00,,,0.00,meteobridge,2014-10-01 14:33:00,
2014-10-01 07:34:00,57.0,34.7,29.89,South,183,0.0,1.0,43,0.00,,,0.00,meteobridge,2014-10-01 14:34:00,
2014-10-01 07:36:00,57.0,34.7,29.89,WSW,248,0.9,1.0,43,0.00,,,0.00,meteobridge,2014-10-01 14:36:00,
2014-10-01 07:39:00,56.7,35.1,29.89,SE,127,0.9,2.0,44,0.00,,,0.00,meteobridge,2014-10-01 14:39:00,
2014-10-01 07:40:00,56.7,34.3,29.89,South,172,0.0,2.0,43,0.00,,,0.00,meteobridge,2014-10-01 14:40:00,
2014-10-01 07:41:00,56.7,35.1,29.89,South,172,0.0,1.0,44,0.00,,,0.00,meteobridge,2014-10-01 14:41:00,
2014-10-01 07:45:00,56.5,34.3,29.89,South,170,0.0,0.0,43,0.00,,,0.00,meteobridge,2014-10-01 14:45:00,
2014-10-01 07:46:00,56.3,34.7,29.89,South,170,0.9,1.0,44,0.00,,,0.00,meteobridge,2014-10-01 14:46:00,
2014-10-01 07:47:00,56.3,34.7,29.89,WSW,252,0.9,1.0,44,0.00,,,0.00,meteobridge,2014-10-01 14:47:00,
2014-10-01 07:51:00,56.1,34.5,29.89,SSE,153,0.0,1.0,44,0.00,,,0.00,meteobridge,2014-10-01 14:51:00,
2014-10-01 07:52:00,56.1,34.5,29.89,SSW,212,0.9,1.0,44,0.00,,,0.00,meteobridge,2014-10-01 14:52:00,
2014-10-01 07:57:00,56.1,34.0,29.89,SW,223,0.0,2.0,43,0.00,,,0.00,meteobridge,2014-10-01 14:57:00,
2014-10-01 08:02:00,56.3,34.2,29.89,East,91,0.9,1.0,43,0.00,,,0.00,meteobridge,2014-10-01 15:02:00,
2014-10-01 08:07:00,56.7,34.3,29.89,SSW,210,0.0,1.0,43,0.00,,,0.00,meteobridge,2014-10-01 15:07:00,
2014-10-01 08:12:00,56.8,35.2,29.89,SSW,204,0.9,3.0,44,0.00,,,0.00,meteobridge,2014-10-01 15:12:00,
2014-10-01 08:17:00,57.2,34.9,29.89,West,275,0.0,1.0,43,0.00,,,0.00,meteobridge,2014-10-01 15:17:00,
2014-10-01 08:18:00,57.2,34.9,29.89,West,275,0.0,1.0,43,0.00,,,0.00,meteobridge,2014-10-01 15:18:00,
2014-10-01 08:19:00,57.2,34.3,29.89,ESE,105,0.9,1.0,42,0.00,,,0.00,meteobridge,2014-10-01 15:19:00,
2014-10-01 08:22:00,57.4,35.1,29.90,SSW,202,0.9,2.0,43,0.00,,,0.00,meteobridge,2014-10-01 15:22:00,
2014-10-01 08:24:00,57.4,33.3,29.90,ESE,115,0.9,2.0,40,0.00,,,0.00,meteobridge,2014-10-01 15:24:00,
2014-10-01 08:28:00,57.6,33.4,29.89,ESE,102,0.0,1.0,40,0.00,,,0.00,meteobridge,2014-10-01 15:28:00,
2014-10-01 08:29:00,57.7,33.6,29.90,SW,232,0.9,2.0,40,0.00,,,0.00,meteobridge,2014-10-01 15:29:00,
2014-10-01 08:30:00,57.7,33.6,29.90,WNW,295,0.9,3.0,40,0.00,,,0.00,meteobridge,2014-10-01 15:30:00,
2014-10-01 08:33:00,57.9,33.8,29.89,SE,141,0.9,2.0,40,0.00,,,0.00,meteobridge,2014-10-01 15:33:00,
2014-10-01 08:35:00,58.1,34.5,29.90,SSE,155,0.0,2.0,41,0.00,,,0.00,meteobridge,2014-10-01 15:35:00,
2014-10-01 08:38:00,58.5,34.9,29.90,SW,220,0.0,1.0,41,0.00,,,0.00,meteobridge,2014-10-01 15:38:00,
2014-10-01 08:40:00,58.5,34.9,29.90,SW,220,0.0,0.0,41,0.00,,,0.00,meteobridge,2014-10-01 15:40:00,
2014-10-01 08:44:00,58.5,34.9,29.90,ESE,107,0.0,1.0,41,0.00,,,0.00,meteobridge,2014-10-01 15:44:00,
2014-10-01 08:45:00,58.5,34.2,29.90,SW,227,0.0,1.0,40,0.00,,,0.00,meteobridge,2014-10-01 15:45:00,
2014-10-01 08:50:00,58.5,35.4,29.90,South,191,0.0,1.0,42,0.00,,,0.00,meteobridge,2014-10-01 15:50:00,
2014-10-01 08:51:00,58.5,35.4,29.90,South,191,0.0,1.0,42,0.00,,,0.00,meteobridge,2014-10-01 15:51:00,
2014-10-01 08:55:00,58.5,34.9,29.90,South,191,0.0,0.0,41,0.00,,,0.00,meteobridge,2014-10-01 15:55:00,
2014-10-01 08:56:00,58.5,34.9,29.90,South,191,0.0,0.0,41,0.00,,,0.00,meteobridge,2014-10-01 15:56:00,
2014-10-01 09:00:00,58.5,34.9,29.90,SE,125,0.0,2.0,41,0.00,,,0.00,meteobridge,2014-10-01 16:00:00,
2014-10-01 09:01:00,58.5,34.9,29.90,SE,125,0.0,2.0,41,0.00,,,0.00,meteobridge,2014-10-01 16:01:00,
2014-10-01 09:03:00,58.3,38.1,29.90,SW,231,0.0,1.0,47,0.00,,,0.00,meteobridge,2014-10-01 16:03:00,
2014-10-01 09:05:00,58.1,37.9,29.91,SW,231,0.0,1.0,47,0.00,,,0.00,meteobridge,2014-10-01 16:05:00,
2014-10-01 09:06:00,58.1,37.4,29.91,SW,231,0.9,1.0,46,0.00,,,0.00,meteobridge,2014-10-01 16:06:00,
2014-10-01 09:08:00,58.1,37.4,29.91,NE,42,0.0,2.0,46,0.00,,,0.00,meteobridge,2014-10-01 16:08:00,
2014-10-01 09:11:00,57.9,37.8,29.91,NE,42,0.0,1.0,47,0.00,,,0.00,meteobridge,2014-10-01 16:11:00,
2014-10-01 09:13:00,57.9,37.8,29.90,South,175,0.9,2.0,47,0.00,,,0.00,meteobridge,2014-10-01 16:13:00,
2014-10-01 09:17:00,57.9,34.9,29.90,West,278,0.0,2.0,42,0.00,,,0.00,meteobridge,2014-10-01 16:17:00,
2014-10-01 09:19:00,57.9,37.8,29.90,West,278,0.0,0.0,47,0.00,,,0.00,meteobridge,2014-10-01 16:19:00,
2014-10-01 09:22:00,58.3,36.5,29.91,SE,131,0.0,3.0,44,0.00,,,0.00,meteobridge,2014-10-01 16:22:00,
2014-10-01 09:23:00,58.3,36.0,29.90,SE,131,0.0,0.0,43,0.00,,,0.00,meteobridge,2014-10-01 16:23:00,
2014-10-01 09:24:00,58.3,36.5,29.90,SE,132,0.0,1.0,44,0.00,,,0.00,meteobridge,2014-10-01 16:24:00,
2014-10-01 09:28:00,58.6,35.1,29.90,SSW,200,0.0,2.0,41,0.00,,,0.00,meteobridge,2014-10-01 16:28:00,
2014-10-01 09:29:00,58.8,33.3,29.90,SSE,163,0.0,1.0,38,0.00,,,0.00,meteobridge,2014-10-01 16:29:00,
2014-10-01 09:33:00,59.4,35.6,29.91,SW,214,0.9,1.0,41,0.00,,,0.00,meteobridge,2014-10-01 16:33:00,
2014-10-01 09:34:00,59.5,34.5,29.91,ESE,118,0.9,2.0,39,0.00,,,0.00,meteobridge,2014-10-01 16:34:00,
2014-10-01 09:39:00,60.3,33.8,29.91,SSW,211,0.0,1.0,37,0.00,,,0.00,meteobridge,2014-10-01 16:39:00,
2014-10-01 09:40:00,60.3,34.5,29.91,SSW,205,0.0,1.0,38,0.00,,,0.00,meteobridge,2014-10-01 16:40:00,
2014-10-01 09:44:00,60.4,35.4,29.91,SSW,205,0.0,0.0,39,0.00,,,0.00,meteobridge,2014-10-01 16:44:00,
2014-10-01 09:45:00,60.4,35.4,29.91,SW,231,0.0,2.0,39,0.00,,,0.00,meteobridge,2014-10-01 16:45:00,
2014-10-01 09:49:00,60.6,34.9,29.91,SW,231,0.0,1.0,38,0.00,,,0.00,meteobridge,2014-10-01 16:49:00,
2014-10-01 09:50:00,60.6,36.1,29.91,SW,231,0.0,0.0,40,0.00,,,0.00,meteobridge,2014-10-01 16:50:00,
2014-10-01 09:51:00,60.6,35.6,29.91,SW,231,0.0,1.0,39,0.00,,,0.00,meteobridge,2014-10-01 16:51:00,
2014-10-01 09:54:00,61.0,35.2,29.91,ENE,65,0.0,6.0,38,0.00,,,0.00,meteobridge,2014-10-01 16:54:00,
2014-10-01 09:56:00,61.2,36.0,29.91,ENE,66,0.0,1.0,39,0.00,,,0.00,meteobridge,2014-10-01 16:56:00,
2014-10-01 10:00:00,61.3,36.9,29.91,East,101,2.9,3.0,40,0.00,,,0.00,meteobridge,2014-10-01 17:00:00,
2014-10-01 10:01:00,61.5,37.0,29.91,ESE,103,0.0,3.0,40,0.00,,,0.00,meteobridge,2014-10-01 17:01:00,
2014-10-01 10:03:00,61.5,35.6,29.91,East,101,0.0,0.0,38,0.00,,,0.00,meteobridge,2014-10-01 17:03:00,
2014-10-01 10:05:00,61.9,37.9,29.91,NNE,27,0.0,1.0,41,0.00,,,0.00,meteobridge,2014-10-01 17:05:00,
2014-10-01 10:06:00,61.9,36.0,29.91,NE,45,0.9,1.0,38,0.00,,,0.00,meteobridge,2014-10-01 17:06:00,
2014-10-01 10:08:00,62.1,37.4,29.91,NE,45,0.0,1.0,40,0.00,,,0.00,meteobridge,2014-10-01 17:08:00,
2014-10-01 10:11:00,62.4,33.6,29.92,East,79,0.0,3.0,34,0.00,,,0.00,meteobridge,2014-10-01 17:11:00,
2014-10-01 10:12:00,62.4,34.3,29.92,East,79,0.0,3.0,35,0.00,,,0.00,meteobridge,2014-10-01 17:12:00,
2014-10-01 10:13:00,62.8,34.7,29.92,East,79,0.0,1.0,35,0.00,,,0.00,meteobridge,2014-10-01 17:13:00,
2014-10-01 10:17:00,63.1,36.5,29.92,West,280,2.9,3.0,37,0.00,,,0.00,meteobridge,2014-10-01 17:17:00,
2014-10-01 10:18:00,63.3,35.2,29.92,SW,221,0.9,3.0,35,0.00,,,0.00,meteobridge,2014-10-01 17:18:00,
2014-10-01 10:22:00,63.5,40.6,29.92,SW,221,0.0,1.0,43,0.00,,,0.00,meteobridge,2014-10-01 17:22:00,
2014-10-01 10:23:00,63.3,39.2,29.92,ENE,72,0.0,3.0,41,0.00,,,0.00,meteobridge,2014-10-01 17:23:00,
2014-10-01 10:27:00,63.3,35.2,29.92,SSE,168,0.9,2.0,35,0.00,,,0.00,meteobridge,2014-10-01 17:27:00,
2014-10-01 10:29:00,63.7,35.6,29.91,SSE,167,0.0,1.0,35,0.00,,,0.00,meteobridge,2014-10-01 17:29:00,
2014-10-01 10:32:00,63.9,37.0,29.91,SSE,167,0.0,0.0,37,0.00,,,0.00,meteobridge,2014-10-01 17:32:00,
2014-10-01 10:33:00,63.9,37.0,29.91,SSE,168,0.0,0.0,37,0.00,,,0.00,meteobridge,2014-10-01 17:33:00,
2014-10-01 10:34:00,63.9,37.0,29.91,West,263,0.0,1.0,37,0.00,,,0.00,meteobridge,2014-10-01 17:34:00,
2014-10-01 10:37:00,64.2,36.7,29.91,NNE,13,0.9,2.0,36,0.00,,,0.00,meteobridge,2014-10-01 17:37:00,
2014-10-01 10:38:00,64.2,38.1,29.91,West,269,0.0,2.0,38,0.00,,,0.00,meteobridge,2014-10-01 17:38:00,
2014-10-01 10:39:00,64.2,38.1,29.91,West,269,0.0,2.0,38,0.00,,,0.00,meteobridge,2014-10-01 17:39:00,
2014-10-01 10:40:00,64.6,36.3,29.91,West,269,0.0,0.0,35,0.00,,,0.00,meteobridge,2014-10-01 17:40:00,
2014-10-01 10:42:00,64.6,36.3,29.91,West,268,0.9,1.0,35,0.00,,,0.00,meteobridge,2014-10-01 17:42:00,
2014-10-01 10:44:00,64.8,36.5,29.92,West,268,0.0,1.0,35,0.00,,,0.00,meteobridge,2014-10-01 17:44:00,
2014-10-01 10:45:00,64.8,36.5,29.91,West,264,0.0,1.0,35,0.00,,,0.00,meteobridge,2014-10-01 17:45:00,
2014-10-01 10:49:00,65.1,33.8,29.91,SW,217,2.0,2.0,31,0.00,,,0.00,meteobridge,2014-10-01 17:49:00,
2014-10-01 10:51:00,65.5,33.3,29.91,South,175,0.0,1.0,30,0.00,,,0.00,meteobridge,2014-10-01 17:51:00,
2014-10-01 10:54:00,65.8,36.7,29.91,South,176,0.0,0.0,34,0.00,,,0.00,meteobridge,2014-10-01 17:54:00,
2014-10-01 10:56:00,66.2,35.4,29.91,NNW,328,0.0,1.0,32,0.00,,,0.00,meteobridge,2014-10-01 17:56:00,
2014-10-01 10:59:00,66.7,39.0,29.91,NNW,328,0.0,0.0,36,0.00,,,0.00,meteobridge,2014-10-01 17:59:00,
2014-10-01 11:01:00,66.9,37.6,29.91,NNW,328,0.0,0.0,34,0.00,,,0.00,meteobridge,2014-10-01 18:01:00,
2014-10-01 11:04:00,67.3,37.9,29.91,SW,235,0.0,1.0,34,0.00,,,0.00,meteobridge,2014-10-01 18:04:00,
2014-10-01 11:07:00,67.3,37.9,29.91,SW,235,0.0,0.0,34,0.00,,,0.00,meteobridge,2014-10-01 18:07:00,
2014-10-01 11:10:00,67.5,38.8,29.91,SSW,200,0.0,1.0,35,0.00,,,0.00,meteobridge,2014-10-01 18:10:00,
2014-10-01 11:12:00,67.5,42.3,29.91,SSW,200,0.0,0.0,40,0.00,,,0.00,meteobridge,2014-10-01 18:12:00,
2014-10-01 11:14:00,67.6,43.2,29.91,SSW,200,0.0,0.0,41,0.00,,,0.00,meteobridge,2014-10-01 18:14:00,
2014-10-01 11:15:00,67.6,41.2,29.91,SSW,195,0.0,1.0,38,0.00,,,0.00,meteobridge,2014-10-01 18:15:00,
2014-10-01 11:17:00,67.6,37.6,29.91,SSW,195,0.0,0.0,33,0.00,,,0.00,meteobridge,2014-10-01 18:17:00,
2014-10-01 11:19:00,67.8,35.2,29.91,East,79,0.0,2.0,30,0.00,,,0.00,meteobridge,2014-10-01 18:19:00,
2014-10-01 11:20:00,68.0,35.4,29.91,East,85,0.9,2.0,30,0.00,,,0.00,meteobridge,2014-10-01 18:20:00,
2014-10-01 11:23:00,68.2,38.7,29.91,SW,235,2.0,3.0,34,0.00,,,0.00,meteobridge,2014-10-01 18:23:00,
2014-10-01 11:25:00,68.4,34.0,29.91,ENE,70,0.0,2.0,28,0.00,,,0.00,meteobridge,2014-10-01 18:25:00,
2014-10-01 11:26:00,68.4,40.3,29.91,ENE,65,0.9,2.0,36,0.00,,,0.00,meteobridge,2014-10-01 18:26:00,
2014-10-01 11:28:00,68.5,36.7,29.91,North,359,0.9,2.0,31,0.00,,,0.00,meteobridge,2014-10-01 18:28:00,
2014-10-01 11:30:00,68.7,37.6,29.91,North,359,0.9,1.0,32,0.00,,,0.00,meteobridge,2014-10-01 18:30:00,
2014-10-01 11:31:00,68.9,37.8,29.91,West,264,2.0,2.0,32,0.00,,,0.00,meteobridge,2014-10-01 18:31:00,
2014-10-01 11:33:00,69.3,38.1,29.91,North,1,0.0,2.0,32,0.00,,,0.00,meteobridge,2014-10-01 18:33:00,
2014-10-01 11:36:00,69.6,41.5,29.91,North,1,0.9,1.0,36,0.00,,,0.00,meteobridge,2014-10-01 18:36:00,
2014-10-01 11:38:00,70.3,39.9,29.91,North,1,0.0,1.0,33,0.00,,,0.00,meteobridge,2014-10-01 18:38:00,
2014-10-01 11:41:00,70.7,38.7,29.91,East,80,0.0,1.0,31,0.00,,,0.00,meteobridge,2014-10-01 18:41:00,
2014-10-01 11:42:00,70.9,36.1,29.91,East,80,0.0,1.0,28,0.00,,,0.00,meteobridge,2014-10-01 18:42:00,
2014-10-01 11:43:00,71.1,38.8,29.91,East,80,0.0,1.0,31,0.00,,,0.00,meteobridge,2014-10-01 18:43:00,
2014-10-01 11:47:00,71.4,35.8,29.91,East,80,0.0,1.0,27,0.00,,,0.00,meteobridge,2014-10-01 18:47:00,
2014-10-01 11:49:00,71.6,38.5,29.91,East,80,0.9,1.0,30,0.00,,,0.00,meteobridge,2014-10-01 18:49:00,
2014-10-01 11:52:00,72.0,42.1,29.91,ENE,68,0.9,1.0,34,0.00,,,0.00,meteobridge,2014-10-01 18:52:00,
2014-10-01 11:53:00,72.0,42.1,29.91,ENE,68,0.0,1.0,34,0.00,,,0.00,meteobridge,2014-10-01 18:53:00,
2014-10-01 11:55:00,72.1,41.4,29.91,ENE,68,0.0,1.0,33,0.00,,,0.00,meteobridge,2014-10-01 18:55:00,
2014-10-01 11:58:00,72.3,38.3,29.91,ENE,68,0.0,1.0,29,0.00,,,0.00,meteobridge,2014-10-01 18:58:00,
2014-10-01 12:01:00,72.7,39.4,29.91,SW,232,0.0,1.0,30,0.00,,,0.00,meteobridge,2014-10-01 19:01:00,
2014-10-01 12:03:00,72.9,38.7,29.91,SE,128,0.0,1.0,29,0.00,,,0.00,meteobridge,2014-10-01 19:03:00,
2014-10-01 12:06:00,73.2,36.3,29.91,SW,233,0.9,1.0,26,0.00,,,0.00,meteobridge,2014-10-01 19:06:00,
2014-10-01 12:08:00,73.4,37.4,29.91,SSW,204,0.0,2.0,27,0.00,,,0.00,meteobridge,2014-10-01 19:08:00,
2014-10-01 12:12:00,73.8,35.8,29.91,SSE,167,0.0,1.0,25,0.00,,,0.00,meteobridge,2014-10-01 19:12:00,
2014-10-01 12:13:00,73.9,36.0,29.91,SSW,207,0.9,2.0,25,0.00,,,0.00,meteobridge,2014-10-01 19:13:00,
2014-10-01 12:14:00,73.9,34.9,29.91,SE,136,0.0,2.0,24,0.00,,,0.00,meteobridge,2014-10-01 19:14:00,
2014-10-01 12:17:00,74.5,37.4,29.91,West,266,0.9,1.0,26,0.00,,,0.00,meteobridge,2014-10-01 19:17:00,
2014-10-01 12:18:00,74.5,37.4,29.91,West,261,0.9,1.0,26,0.00,,,0.00,meteobridge,2014-10-01 19:18:00,
2014-10-01 12:19:00,74.1,37.9,29.90,West,261,2.0,2.0,27,0.00,,,0.00,meteobridge,2014-10-01 19:19:00,
2014-10-01 12:22:00,73.9,42.3,29.90,WSW,257,0.0,1.0,32,0.00,,,0.00,meteobridge,2014-10-01 19:22:00,
2014-10-01 12:24:00,73.9,43.9,29.90,WSW,257,0.0,1.0,34,0.00,,,0.00,meteobridge,2014-10-01 19:24:00,
2014-10-01 12:27:00,74.1,42.4,29.90,WSW,257,0.0,0.0,32,0.00,,,0.00,meteobridge,2014-10-01 19:27:00,
2014-10-01 12:29:00,74.5,40.1,29.90,WSW,257,0.0,0.0,29,0.00,,,0.00,meteobridge,2014-10-01 19:29:00,
2014-10-01 12:33:00,75.0,36.9,29.90,SE,133,0.0,1.0,25,0.00,,,0.00,meteobridge,2014-10-01 19:33:00,
2014-10-01 12:34:00,75.4,37.0,29.90,South,174,0.9,1.0,25,0.00,,,0.00,meteobridge,2014-10-01 19:34:00,
2014-10-01 12:35:00,75.6,37.2,29.90,South,170,0.9,1.0,25,0.00,,,0.00,meteobridge,2014-10-01 19:35:00,
2014-10-01 12:37:00,75.7,40.3,29.90,SE,130,0.0,1.0,28,0.00,,,0.00,meteobridge,2014-10-01 19:37:00,
2014-10-01 12:39:00,75.9,38.7,29.90,SSW,193,0.0,1.0,26,0.00,,,0.00,meteobridge,2014-10-01 19:39:00,
2014-10-01 12:40:00,75.9,42.3,29.90,SSW,193,0.0,1.0,30,0.00,,,0.00,meteobridge,2014-10-01 19:40:00,
2014-10-01 12:44:00,75.9,38.7,29.90,ENE,74,0.0,2.0,26,0.00,,,0.00,meteobridge,2014-10-01 19:44:00,
2014-10-01 12:45:00,75.9,35.4,29.90,WSW,252,0.9,1.0,23,0.00,,,0.00,meteobridge,2014-10-01 19:45:00,
2014-10-01 12:49:00,75.6,41.0,29.90,WSW,252,0.9,1.0,29,0.00,,,0.00,meteobridge,2014-10-01 19:49:00,
2014-10-01 12:50:00,75.7,39.4,29.90,WSW,252,0.0,1.0,27,0.00,,,0.00,meteobridge,2014-10-01 19:50:00,
2014-10-01 12:54:00,75.9,38.7,29.89,WSW,252,0.0,1.0,26,0.00,,,0.00,meteobridge,2014-10-01 19:54:00,
2014-10-01 12:55:00,75.9,40.5,29.89,WSW,252,0.0,1.0,28,0.00,,,0.00,meteobridge,2014-10-01 19:55:00,
2014-10-01 13:00:00,75.9,38.7,29.89,West,271,0.0,1.0,26,0.00,,,0.00,meteobridge,2014-10-01 20:00:00,
2014-10-01 13:02:00,75.9,38.7,29.89,WSW,257,0.9,1.0,26,0.00,,,0.00,meteobridge,2014-10-01 20:02:00,
2014-10-01 13:06:00,75.9,38.7,29.89,WNW,285,0.0,1.0,26,0.00,,,0.00,meteobridge,2014-10-01 20:06:00,
2014-10-01 13:07:00,75.9,38.7,29.89,WNW,285,0.0,1.0,26,0.00,,,0.00,meteobridge,2014-10-01 20:07:00,
2014-10-01 13:11:00,75.9,41.4,29.89,WSW,246,0.0,2.0,29,0.00,,,0.00,meteobridge,2014-10-01 20:11:00,
2014-10-01 13:13:00,75.7,39.4,29.89,SW,225,0.0,1.0,27,0.00,,,0.00,meteobridge,2014-10-01 20:13:00,
2014-10-01 13:16:00,75.6,38.3,29.89,SW,232,2.0,3.0,26,0.00,,,0.00,meteobridge,2014-10-01 20:16:00,
2014-10-01 13:18:00,75.4,38.1,29.88,WSW,252,0.9,3.0,26,0.00,,,0.00,meteobridge,2014-10-01 20:18:00,
2014-10-01 13:19:00,75.2,39.9,29.88,WSW,252,0.0,2.0,28,0.00,,,0.00,meteobridge,2014-10-01 20:19:00,
2014-10-01 13:23:00,75.4,36.1,29.88,West,264,0.9,2.0,24,0.00,,,0.00,meteobridge,2014-10-01 20:23:00,
2014-10-01 13:25:00,75.4,39.0,29.88,SW,236,0.0,2.0,27,0.00,,,0.00,meteobridge,2014-10-01 20:25:00,
2014-10-01 13:28:00,75.4,41.7,29.89,SW,236,0.0,0.0,30,0.00,,,0.00,meteobridge,2014-10-01 20:28:00,
2014-10-01 13:29:00,75.4,39.0,29.88,NNE,32,0.9,2.0,27,0.00,,,0.00,meteobridge,2014-10-01 20:29:00,
2014-10-01 13:30:00,75.4,37.0,29.88,SE,128,0.9,2.0,25,0.00,,,0.00,meteobridge,2014-10-01 20:30:00,
2014-10-01 13:33:00,75.6,34.0,29.88,WSW,244,2.9,5.0,22,0.00,,,0.00,meteobridge,2014-10-01 20:33:00,
2014-10-01 13:34:00,75.4,34.0,29.88,WSW,245,2.0,4.0,22,0.00,,,0.00,meteobridge,2014-10-01 20:34:00,
2014-10-01 13:35:00,75.4,35.1,29.88,WSW,250,0.0,3.0,23,0.00,,,0.00,meteobridge,2014-10-01 20:35:00,
2014-10-01 13:38:00,75.0,37.8,29.88,SSW,209,0.0,2.0,26,0.00,,,0.00,meteobridge,2014-10-01 20:38:00,
2014-10-01 13:39:00,75.0,37.8,29.88,West,266,0.0,2.0,26,0.00,,,0.00,meteobridge,2014-10-01 20:39:00,
2014-10-01 13:40:00,75.0,37.8,29.88,SSE,158,0.0,1.0,26,0.00,,,0.00,meteobridge,2014-10-01 20:40:00,
2014-10-01 13:44:00,75.0,39.7,29.88,SSE,158,0.0,0.0,28,0.00,,,0.00,meteobridge,2014-10-01 20:44:00,
2014-10-01 13:45:00,74.8,41.4,29.88,WSW,257,0.9,1.0,30,0.00,,,0.00,meteobridge,2014-10-01 20:45:00,
2014-10-01 13:49:00,74.8,39.6,29.88,NNE,30,0.9,3.0,28,0.00,,,0.00,meteobridge,2014-10-01 20:49:00,
2014-10-01 13:50:00,74.8,39.6,29.88,NNE,15,0.9,3.0,28,0.00,,,0.00,meteobridge,2014-10-01 20:50:00,
2014-10-01 13:51:00,74.8,41.4,29.88,North,11,0.9,3.0,30,0.00,,,0.00,meteobridge,2014-10-01 20:51:00,
2014-10-01 13:54:00,74.7,41.2,29.88,NNE,18,2.0,2.0,30,0.00,,,0.00,meteobridge,2014-10-01 20:54:00,
2014-10-01 13:55:00,74.7,41.2,29.88,East,93,0.9,2.0,30,0.00,,,0.00,meteobridge,2014-10-01 20:55:00,
2014-10-01 13:56:00,74.5,41.0,29.88,WSW,257,2.0,2.0,30,0.00,,,0.00,meteobridge,2014-10-01 20:56:00,
2014-10-01 13:59:00,74.5,41.0,29.88,WSW,250,0.0,0.0,30,0.00,,,0.00,meteobridge,2014-10-01 20:59:00,
2014-10-01 14:01:00,74.3,39.0,29.88,SW,215,0.0,1.0,28,0.00,,,0.00,meteobridge,2014-10-01 21:01:00,
2014-10-01 14:02:00,74.3,38.1,29.88,SW,215,0.9,1.0,27,0.00,,,0.00,meteobridge,2014-10-01 21:02:00,
2014-10-01 14:04:00,74.3,37.2,29.88,NE,43,0.0,3.0,26,0.00,,,0.00,meteobridge,2014-10-01 21:04:00,
2014-10-01 14:06:00,74.5,39.2,29.88,NE,43,0.0,0.0,28,0.00,,,0.00,meteobridge,2014-10-01 21:06:00,
2014-10-01 14:07:00,74.5,38.3,29.88,NE,43,0.0,1.0,27,0.00,,,0.00,meteobridge,2014-10-01 21:07:00,
2014-10-01 14:10:00,74.5,40.1,29.87,NE,44,0.9,1.0,29,0.00,,,0.00,meteobridge,2014-10-01 21:10:00,
2014-10-01 14:11:00,74.5,40.1,29.88,East,79,0.9,2.0,29,0.00,,,0.00,meteobridge,2014-10-01 21:11:00,
2014-10-01 14:12:00,74.5,38.3,29.87,East,79,0.0,2.0,27,0.00,,,0.00,meteobridge,2014-10-01 21:12:00,
2014-10-01 14:13:00,74.5,37.4,29.87,ENE,78,0.0,1.0,26,0.00,,,0.00,meteobridge,2014-10-01 21:13:00,
2014-10-01 14:16:00,74.5,34.3,29.87,West,268,0.0,1.0,23,0.00,,,0.00,meteobridge,2014-10-01 21:16:00,
2014-10-01 14:17:00,74.5,37.4,29.87,WSW,258,0.0,1.0,26,0.00,,,0.00,meteobridge,2014-10-01 21:17:00,
2014-10-01 14:19:00,74.5,38.3,29.87,WSW,258,0.0,1.0,27,0.00,,,0.00,meteobridge,2014-10-01 21:19:00,
2014-10-01 14:21:00,74.5,38.3,29.87,WSW,258,0.0,0.0,27,0.00,,,0.00,meteobridge,2014-10-01 21:21:00,
2014-10-01 14:22:00,74.5,37.4,29.87,WSW,258,0.0,1.0,26,0.00,,,0.00,meteobridge,2014-10-01 21:22:00,
2014-10-01 14:24:00,74.5,33.1,29.87,WSW,253,0.9,1.0,22,0.00,,,0.00,meteobridge,2014-10-01 21:24:00,
2014-10-01 14:27:00,74.7,32.2,29.87,SW,224,0.0,2.0,21,0.00,,,0.00,meteobridge,2014-10-01 21:27:00,
2014-10-01 14:30:00,74.8,35.6,29.87,NW,321,0.0,1.0,24,0.00,,,0.00,meteobridge,2014-10-01 21:30:00,
2014-10-01 14:32:00,74.8,33.4,29.87,SW,232,0.0,2.0,22,0.00,,,0.00,meteobridge,2014-10-01 21:32:00,
2014-10-01 14:35:00,74.8,32.4,29.87,WSW,241,0.9,2.0,21,0.00,,,0.00,meteobridge,2014-10-01 21:35:00,
2014-10-01 14:36:00,75.0,31.3,29.87,West,278,0.0,2.0,20,0.00,,,0.00,meteobridge,2014-10-01 21:36:00,
2014-10-01 14:38:00,75.2,36.0,29.87,NNE,13,0.0,2.0,24,0.00,,,0.00,meteobridge,2014-10-01 21:38:00,
2014-10-01 14:40:00,75.4,34.0,29.87,NNE,13,0.0,0.0,22,0.00,,,0.00,meteobridge,2014-10-01 21:40:00,
2014-10-01 14:43:00,75.4,31.5,29.87,WSW,240,0.0,2.0,20,0.00,,,0.00,meteobridge,2014-10-01 21:43:00,
2014-10-01 14:45:00,75.4,34.0,29.87,West,277,0.0,1.0,22,0.00,,,0.00,meteobridge,2014-10-01 21:45:00,
2014-10-01 14:48:00,75.4,31.5,29.87,WSW,240,2.0,2.0,20,0.00,,,0.00,meteobridge,2014-10-01 21:48:00,
2014-10-01 14:49:00,75.4,32.7,29.87,WSW,237,2.0,2.0,21,0.00,,,0.00,meteobridge,2014-10-01 21:49:00,
2014-10-01 14:50:00,75.4,31.5,29.87,SW,224,0.0,3.0,20,0.00,,,0.00,meteobridge,2014-10-01 21:50:00,
2014-10-01 14:53:00,75.6,36.3,29.87,SW,224,0.9,1.0,24,0.00,,,0.00,meteobridge,2014-10-01 21:53:00,
2014-10-01 14:54:00,75.6,34.0,29.87,WSW,241,2.0,2.0,22,0.00,,,0.00,meteobridge,2014-10-01 21:54:00,
2014-10-01 14:55:00,75.6,32.9,29.87,WNW,299,0.0,3.0,21,0.00,,,0.00,meteobridge,2014-10-01 21:55:00,
2014-10-01 14:59:00,75.7,34.2,29.87,WNW,298,0.9,1.0,22,0.00,,,0.00,meteobridge,2014-10-01 21:59:00,
2014-10-01 15:01:00,75.7,36.3,29.87,WNW,299,0.0,1.0,24,0.00,,,0.00,meteobridge,2014-10-01 22:01:00,
2014-10-01 15:04:00,75.7,33.1,29.87,SSE,167,0.0,2.0,21,0.00,,,0.00,meteobridge,2014-10-01 22:04:00,
2014-10-01 15:06:00,75.9,33.3,29.87,SE,133,2.0,2.0,21,0.00,,,0.00,meteobridge,2014-10-01 22:06:00,
2014-10-01 15:09:00,76.3,35.8,29.87,West,277,0.0,1.0,23,0.00,,,0.00,meteobridge,2014-10-01 22:09:00,
2014-10-01 15:10:00,76.3,36.9,29.87,West,277,0.0,1.0,24,0.00,,,0.00,meteobridge,2014-10-01 22:10:00,
2014-10-01 15:11:00,76.3,37.9,29.87,West,277,0.0,1.0,25,0.00,,,0.00,meteobridge,2014-10-01 22:11:00,
2014-10-01 15:14:00,76.1,41.5,29.87,NNW,339,0.9,1.0,29,0.00,,,0.00,meteobridge,2014-10-01 22:14:00,
2014-10-01 15:16:00,75.9,43.2,29.87,NE,46,0.0,1.0,31,0.00,,,0.00,meteobridge,2014-10-01 22:16:00,
2014-10-01 15:20:00,75.6,45.1,29.87,NE,46,0.0,1.0,34,0.00,,,0.00,meteobridge,2014-10-01 22:20:00,
2014-10-01 15:21:00,75.2,42.4,29.87,NNW,339,0.0,1.0,31,0.00,,,0.00,meteobridge,2014-10-01 22:21:00,